Location: Cheyres
(46.8153°N, 6.7877°E)
Time: 08:08:46
(UTC+00:00)

Cosmos 990 Rocket - Pass Details

Date: 23 September 2021
Orbit: 746 x 769 km, 74.0° (Epoch: 21 October)

Event Time Altitude Azimuth Distance (km) Brightness Sun altitude
Exits shadow 20:38:04 23° 19° (NNE) 1,583 5.8 -31.1°
Drops below altitude 10° 20:39:57 10° 21° (NNE) 2,293 6.6 -31.3°
Sets 20:42:21 0° 22° (NNE) 3,226 7.4 -31.6°
